EW0395 Weather Reports


Display with metric or nautical units.
time (UTC)temp
F
wind
direction
speed
MPH
gust
MPH
rain 1hr
in
rain 24hr
in
rain mn
in
humidity
%
barometer
mb
20260506181534 58 194 0.0 2.0 0.16 0.23 0.23 95 1006.2
20260506180035 58 0 0.0 2.0 0.16 0.20 0.20 95 1006.8
20260506174535 58 217 0.0 2.0 0.15 0.17 0.17 95 1007.2
20260506173039 58 170 0.0 1.0 0.12 0.12 0.12 94 1007.2
20260506171534 59 0 0.0 3.0 0.07 0.07 0.07 93 1007.1
20260506170032 59 0 0.0 3.0 0.04 0.04 0.04 92 1007.1
20260506164536 60 207 0.0 2.0 0.02 0.02 0.02 90 1007.2
20260506163050 60 232 0.0 3.0 0.00 0.00 0.00 86 1007.3
20260506161531 61 231 0.0 2.0 0.00 0.00 0.00 85 1007.5
20260506160036 61 258 1.0 6.0 0.00 0.00 0.00 83 1007.6
20260506154537 61 267 0.0 4.0 0.00 0.00 0.00 84 1007.8
20260506153032 61 0 1.0 4.0 0.00 0.00 0.00 85 1008.1
20260506151538 61 266 1.0 7.0 0.00 0.00 0.00 82 1008.5
20260506150035 61 178 1.0 4.0 0.00 0.00 0.00 80 1008.6
20260506144532 62 242 1.0 3.0 0.00 0.00 0.00 78 1008.3
20260506143032 62 268 1.0 2.0 0.00 0.00 0.00 78 1008.1
20260506141529 61 216 1.0 4.0 0.00 0.00 0.00 79 1008.2
20260506140037 61 192 1.0 4.0 0.00 0.00 0.00 81 1008.3
20260506134532 60 223 1.0 3.0 0.00 0.00 0.00 82 1008.2
20260506133033 59 245 1.0 3.0 0.00 0.00 0.00 83 1008.3
20260506131536 59 252 1.0 6.0 0.00 0.00 0.00 84 1008.5
20260506130033 58 250 1.0 4.0 0.00 0.00 0.00 84 1009.0
20260506124532 58 327 1.0 2.0 0.00 0.00 0.00 84 1008.7
20260506123032 58 234 0.0 3.0 0.00 0.00 0.00 84 1008.5
20260506121538 58 0 0.0 4.0 0.00 0.00 0.00 84 1008.2
20260506120034 58 238 0.0 2.0 0.00 0.00 0.00 85 1008.7
20260506114531 57 174 0.0 1.0 0.00 0.00 0.00 86 1008.7
20260506113030 57 157 0.0 2.0 0.00 0.00 0.00 86 1008.7
20260506111534 56 240 0.0 1.0 0.00 0.00 0.00 88 1008.9
20260506110036 54 236 0.0 3.0 0.00 0.00 0.00 90 1008.7
20260506104534 52 0 0.0 1.0 0.00 0.00 0.00 91 1008.6
20260506103031 52 0 0.0 1.0 0.00 0.00 0.00 91 1008.7
20260506101533 51 0 0.0 1.0 0.00 0.00 0.00 92 1008.9
20260506100031 50 0 0.0 1.0 0.00 0.00 0.00 92 1009.1
20260506094532 50 0 0.0 0.0 0.00 0.00 0.00 91 1008.8
20260506093032 50 0 0.0 0.0 0.00 0.00 0.00 90 1008.6
20260506091534 51 0 0.0 0.0 0.00 0.00 0.00 89 1008.8
20260506090033 52 0 0.0 0.0 0.00 0.00 0.00 87 1008.6
20260506084537 54 0 0.0 1.0 0.00 0.00 0.00 85 1008.9
20260506083032 54 0 0.0 1.0 0.00 0.00 0.00 85 1008.9
20260506081540 54 0 0.0 1.0 0.00 0.00 0.00 85 1009.1
20260506073035 55 0 0.0 0.0 0.00 0.00 0.00 83 1009.3
20260506071531 55 0 0.0 1.0 0.00 0.00 0.00 83 1009.1
20260506061535 56 0 0.0 1.0 0.00 0.00 0.00 81 1009.1
20260506044538 59 0 0.0 1.0 0.00 0.00 0.00 78 1009.2
20260506043031 60 0 0.0 1.0 0.00 0.00 0.00 77 1009.3
20260506041549 60 0 0.0 1.0 0.00 0.00 0.00 76 1009.1
20260506040035 60 166 0.0 2.0 0.00 0.00 0.00 77 1009.2
20260506034546 61 238 0.0 3.0 0.00 0.00 0.00 78 1009.3
20260506033036 61 0 0.0 0.0 0.00 0.00 0.00 78 1009.3
20260506031533 61 159 0.0 1.0 0.00 0.00 0.00 77 1009.2
20260506030037 61 223 0.0 2.0 0.00 0.00 0.00 77 1009.2
20260506024531 61 0 0.0 4.0 0.00 0.00 0.00 77 1009.1
20260506023034 60 254 0.0 3.0 0.00 0.00 0.00 80 1009.2
20260506021532 60 0 0.0 0.0 0.00 0.00 0.00 83 1009.2
20260506020032 59 0 0.0 0.0 0.00 0.00 0.00 83 1009.3
20260506014532 59 0 0.0 2.0 0.00 0.00 0.00 82 1009.1
20260506013047 61 0 0.0 1.0 0.00 0.00 0.00 80 1008.8
20260506011541 61 0 0.0 0.0 0.00 0.00 0.00 77 1008.5
20260506010037 61 85 0.0 1.0 0.00 0.00 0.00 76 1008.4
20260506004533 61 0 0.0 0.0 0.00 0.00 0.00 77 1008.6
20260506003032 61 0 0.0 1.0 0.00 0.00 0.00 77 1008.5
20260506001533 62 138 0.0 1.0 0.00 0.00 0.00 78 1008.4
20260506000031 62 0 0.0 1.0 0.00 0.00 0.00 76 1008.3
20260505234531 62 0 0.0 1.0 0.00 0.00 0.00 76 1008.1
20260505233035 63 0 0.0 1.0 0.00 0.00 0.00 75 1008.2
20260505231534 63 0 0.0 2.0 0.00 0.00 0.00 74 1007.9
20260505230049 63 0 0.0 1.0 0.00 0.00 0.00 74 1007.8
20260505224533 64 284 0.0 4.0 0.00 0.00 0.00 73 1007.7
20260505223039 65 0 0.0 0.0 0.00 0.00 0.00 71 1007.3
20260505221530 65 0 0.0 0.0 0.00 0.00 0.00 67 1006.8
20260505220049 65 140 0.0 1.0 0.00 0.00 0.00 69 1006.2
20260505214536 65 117 1.0 4.0 0.00 0.00 0.00 69 1006.1
20260505213034 67 254 1.0 5.0 0.00 0.00 0.00 62 1006.1
20260505211531 75 235 3.0 8.0 0.00 0.00 0.00 41 1006.0
20260505210036 77 227 2.0 5.0 0.00 0.00 0.00 36 1004.6
20260505204535 77 240 1.0 5.0 0.00 0.00 0.00 38 1004.3
20260505203032 78 256 1.0 7.0 0.00 0.00 0.00 37 1004.3
20260505201533 78 164 1.0 11.0 0.00 0.00 0.00 37 1004.4
20260505200040 79 258 2.0 8.0 0.00 0.00 0.00 36 1004.5
20260505194532 79 240 3.0 7.0 0.00 0.00 0.00 36 1004.6
20260505193042 80 196 3.0 8.0 0.00 0.00 0.00 35 1004.6
20260505191537 79 229 3.0 8.0 0.00 0.00 0.00 34 1004.7
20260505190034 82 257 3.0 9.0 0.00 0.00 0.00 31 1004.9
20260505184532 82 242 2.0 10.0 0.00 0.00 0.00 33 1005.1
20260505183037 81 198 2.0 9.0 0.00 0.00 0.00 33 1005.3